Location: Innsbruck
(47.2657°N, 11.3914°E)
Time: 01:42:09
(UTC+01:00)

FALCONSAT 3 - Pass Details

Date: 06 December 2021
Orbit: 431 x 434 km, 35.4° (Epoch: 23 January)

Event Time Altitude Azimuth Distance (km) Brightness Sun altitude
Exits shadow 06:28:21 - 229° (SW) 1,977 ? -12.6°
Reaches altitude 10° 06:30:19 10° 206° (SSW) 1,522 ? -12.3°
Maximum altitude 06:31:39 12° 183° (S) 1,417 ? -12.1°
Drops below altitude 10° 06:32:59 10° 160° (SSE) 1,524 ? -11.9°
Sets 06:36:15 0° 127° (SE) 2,393 ? -11.4°
